036  
SXUS52 KJAX 260713  
OSOJAX  
OTHER SURFACE OBSERVATIONS  
NATIONAL WEATHER SERVICE JACKSONVILLE FL  
300 AM EDT THU APR 26 2018  
 
FLZ020>025-030>033-035>038-040-260800-   
..FLORIDA
 
 
 
CITY SKY/WX TMP DP RH WIND PRES REMARKS  
CECIL FIELD FAIR 59 59 100 CALM 29.90S  
HERLONG FIELD NOT AVBL  
FERNANDINA BCH NOT AVBL  
LAKE CITY FAIR 55 55 100 CALM 29.90F  
JUNIPER SPGS NOT AVBL  
BUNNELL NOT AVBL  
KEYSTONE HGTS FAIR 59 59 100 CALM 29.90S  

 
 
GAZ132>136-149>154-162>166-260800-   
..GEORGIA
 
 
 
CITY SKY/WX TMP DP RH WIND PRES REMARKS  
JESUP FAIR 57 54 88 CALM 29.88F  
HOMERVILLE FAIR 55 54 94 CALM 29.90F  
SWAINSBORO FAIR 54 54 100 CALM 29.87F  
CORDELE NOT AVBL  
EASTMAN FAIR 58 49 72 CALM 29.90F  

 
 
PLEASE NOTE: THESE OBSERVATIONS ARE NOT QUALITY CONTROLLED AND MAY  
NOT BE AVAILABLE AT ALL TIMES.  

 
 
 
CLICK HERE TO GO TO PREVIOUS BULLETINS.

The Nexlab FL Page
The Nexlab GA Page Main Text Page